Inquirer Daily News

Weather

Get conditions and forecasts for any City, State, ZIP code or Country:  
Northeast Philadelphia, PA
on Wednesday, December 5, 2012

Wednesday
Previous Day Next Day
Daily Summary
 ActualAverage (KTTN)Record (KTTN)
Temperature
Mean Temperature °F 39°F  
Max Temperature 59°F 46°F 74°F (2001)
Min Temperature 35°F 31°F 10°F (1926)
Degree Days
Heating Degree Days 18 26  
Month to date heating degree days 127  
Since 1 July heating degree days 1103  
Cooling Degree Days 0 0  
Month to date cooling degree days 0  
Year to date cooling degree days 965  
Moisture
Dew Point 34°F   
Average Humidity 56    
Maximum Humidity 78    
Minimum Humidity 41    
Precipitation
Precipitation 0.00 in 0.13 in 1.60 in (1993)
Month to date precipitation 0.71  
Year to date precipitation 43.45  
Wind
Wind Speed 10 mph   
Max Wind Speed 22 mph   
Max Gust Speed 32 mph   
Visibility 10 miles   
Events Rain   

Key: T is trace of precipitation, MM is missing value
Source: NWS Daily Summary
Time(EST)TemperatureDew PointHumidity Pressure Visibility Wind DirectionWind SpeedGust SpeedPrecipitationEvents Conditions
12:54 AM 59.0°F 51.1°F 75% 29.98 in 10.0 miles SSW 5.8 mph - N/A   Overcast
1:54 AM 57.9°F 51.1°F 78% 29.97 in 10.0 miles SW 5.8 mph - 0.00 in Rain Light Rain
2:54 AM 57.9°F 50.0°F 75% 29.96 in 10.0 miles SW 4.6 mph - 0.00 in   Overcast
3:54 AM 57.0°F 50.0°F 77% 29.97 in 10.0 miles WSW 6.9 mph - N/A   Overcast
4:54 AM 59.0°F 50.0°F 72% 29.99 in 10.0 miles NW 10.4 mph 18.4 mph N/A   Overcast
5:54 AM 55.9°F 46.9°F 72% 30.01 in 10.0 miles NW 3.5 mph - 0.00 in Rain Light Rain
6:54 AM 55.0°F 44.1°F 67% 30.04 in 10.0 miles NW 12.7 mph - 0.00 in   Overcast
7:54 AM 54.0°F 41.0°F 62% 30.07 in 10.0 miles NW 9.2 mph 17.3 mph N/A   Overcast
9:54 AM 52.0°F 36.0°F 54% 30.09 in 10.0 miles WNW 12.7 mph 18.4 mph N/A   Clear
10:54 AM 52.0°F 35.1°F 53% 30.09 in 10.0 miles NW 11.5 mph 19.6 mph N/A   Clear
11:54 AM 51.1°F 36.0°F 56% 30.09 in 10.0 miles West 12.7 mph 18.4 mph N/A   Clear
12:54 PM 54.0°F 34.0°F 47% 30.08 in 10.0 miles NW 12.7 mph 21.9 mph N/A   Clear
1:54 PM 54.0°F 32.0°F 43% 30.07 in 10.0 miles NW 17.3 mph 21.9 mph N/A   Clear
2:54 PM 54.0°F 30.9°F 41% 30.08 in 10.0 miles NW 19.6 mph 27.6 mph N/A   Partly Cloudy
3:54 PM 50.0°F 28.9°F 44% 30.11 in 10.0 miles NW 17.3 mph 28.8 mph N/A   Clear
4:54 PM 50.0°F 28.9°F 44% 30.13 in 10.0 miles WNW 15.0 mph - N/A   Mostly Cloudy
5:54 PM 48.9°F 28.0°F 44% 30.16 in 10.0 miles NNW 12.7 mph 24.2 mph N/A   Overcast
6:54 PM 44.1°F 25.0°F 47% 30.21 in 10.0 miles North 21.9 mph 32.2 mph N/A   Mostly Cloudy
7:54 PM 39.9°F 18.0°F 41% 30.26 in 10.0 miles NNW 19.6 mph 26.5 mph N/A   Clear
8:54 PM 37.9°F 18.0°F 45% 30.26 in 10.0 miles NNW 10.4 mph - N/A   Clear
9:54 PM 37.0°F 19.0°F 48% 30.27 in 10.0 miles NNW 5.8 mph - N/A   Clear
10:54 PM 36.0°F 19.9°F 52% 30.27 in 10.0 miles North 12.7 mph - N/A   Clear
11:54 PM 35.1°F 19.0°F 52% 30.30 in 10.0 miles NNW 15.0 mph 18.4 mph N/A   Clear
Astronomy
Sunrise:07:07 AM (EST) Moon Rise:11:21 PM (EST)12/5
Sunset:04:34 PM (EST) Moon Set:11:29 AM (EST)12/5
Moon Phase
Dec. 05 Dec. 06 Dec. 13 Dec. 20 Dec. 28

Copyright © 2014 The Weather Underground, Inc.